Terminal Aerodrome Forecast
Issued by NWS

Home | Current Version | Previous Version | Graphics & Text | Print | Product List | Glossary On
Versions: 1 2 3 4 5 6 7 8 9 10 11 12 13 14 15 16 17 18 19
000
FTUS43 KGRB 281100
TAFMTW
TAF
KMTW 281140Z 2812/2912 22005KT P6SM SCT070 OVC100
     FM281500 19006KT 5SM -SN BR BKN030 OVC070
     FM281800 18008KT 2SM -SN BR OVC015
     FM282300 19012KT 4SM -FZDZSN BR OVC012
     FM290500 19007KT 5SM BR OVC009=

USA.gov is the U.S. government's official web portal to all federal, state and local government web resources and services.